Location: The Saddle
(36.8333°N, 80.3417°W)
Time: 09:53:51
(UTC-04:00)

Courier 1B - Pass Details

Date: 23 January 2022
Orbit: 962 x 1209 km, 28.3° (Epoch: 26 May)

Event Time Altitude Azimuth Distance (km) Brightness Sun altitude
Rises 22:28:38 0° 258° (WSW) 4,107 11.1 -57.6°
Enters shadow 22:29:58 - 256° (WSW) 3,674 10.8 -57.8°
Reaches altitude 10° 22:31:39 10° 252° (WSW) 3,137 - -58.1°
Maximum altitude 22:39:00 45° 183° (S) 1,564 - -59.4°
Drops below altitude 10° 22:46:05 10° 113° (ESE) 3,031 - -60.7°
Sets 22:48:56 0° 107° (ESE) 3,957 - -61.2°
